Miscellaneous Local Product
Issued by NWS North Platte, NE

Home | Current Version | Previous Version | Text Only | Print | Product List | Glossary On
Versions: 1 2 3 4 5 6 7 8 9 10 11 12 13 14 15 16 17 18 19 20 21 22 23 24 25 26 27 28 29 30 31 32 33 34 35 36 37 38 39 40 41 42 43 44 45 46 47 48 49 50
000
AXUS43 KLBF 301410
MISLBF


WESTERN AND NORTH CENTRAL NEBRASKA HOURLY WEATHER ROUNDUP
NATIONAL WEATHER SERVICE NORTH PLATTE NE
800 AM CST FRI JAN 30 2015

***STATIONS NOT REPORTING VARIABLES SUCH AS SKY/WEATHER OR
PRESSURE ARE PROVIDED BY THE NEBRASKA DEPARTMENT OF
ROADS...RAWS...AND APRS NETWORKS...AND ARE NOT UNDER
NATIONAL WEATHER SERVICE QUALITY CONTROL***

...OBSERVATIONS IN AND NEAR THE EASTERN PANHANDLE OF NEBRASKA...

CITY           SKY/WX    TMP DP  RH WIND       PRES   REMARKS
PINE RIDGE     CLOUDY    31  20  63 S10       30.21F WCI  22
CHADRON        CLOUDY    32  20  61 W8        30.21F WCI  25
ALLIANCE       CLOUDY    25  21  85 S3        30.23S
SIDNEY         MOCLDY    28  21  75 S3        30.23F
WHITECLAY        N/A     32  18  55 S12         N/A  WCI  23
CRESCENT LAKE    N/A     27  20  75 S8          N/A  WCI  19
LISCO            N/A     30  19  64 NE9         N/A  WCI  22
LEWELLEN         N/A     30  22  73 S7          N/A  WCI  23
$$

...OBSERVATIONS IN NORTH CENTRAL NEBRASKA...

CITY           SKY/WX    TMP DP  RH WIND       PRES   REMARKS
VALENTINE      MOCLDY    23  18  81 CALM      30.28F
THEDFORD       MOCLDY    32  24  71 S8        30.31F WCI  25
AINSWORTH      MOCLDY    26  21  80 S13       30.30F WCI  15
O`NEILL        PTCLDY    22  20  94 S7        30.40S WCI  13
ORD              N/A     21  18  88 SE7       30.41F WCI  12
BROKEN BOW     MOCLDY    23  19  85 S7        30.37F WCI  15
BROWNLEE         N/A     22  17  81 E7          N/A  WCI  14
VALENTINE NWR    N/A     22  17  80 S9          N/A  WCI  12
SPRINGVIEW       N/A     23  20  87 E3          N/A
HALSEY           N/A     24  17  75 S6          N/A  WCI  17
BREWSTER         N/A     25  23  91 CALM        N/A
ROSE             N/A     28  28 100 E10         N/A  WCI  18
NEWPORT          N/A     30  28  94 S12         N/A  WCI  20
SARGENT          N/A     21  19  91 SE3         N/A
COMSTOCK         N/A     27  25  92 S12         N/A  WCI  17
CHAMBERS         N/A     22  19  88 S5G12       N/A  WCI  16
EWING            N/A     20  18  92 S3          N/A
$$

...OBSERVATIONS IN SOUTHWEST NEBRASKA AND FAR NORTHEAST COLORADO...

CITY           SKY/WX    TMP DP  RH WIND       PRES   REMARKS
WRAY           FAIR      33  26  75 E7        30.27F WCI  26
IMPERIAL       CLOUDY    26  20  77 E5        30.30F WCI  20
OGALLALA       MOCLDY    28  23  79 CALM      30.30F
NORTH PLATTE   MOCLDY    21  17  84 E5        30.34F WCI  15
MCCOOK         CLOUDY    23  18  81 E3        30.37F
LEXINGTON      MOCLDY    25  21  85 SE5       30.40S WCI  19
BRADY            N/A     23  18  81 CALM        N/A
GOTHENBURG       N/A     20  15  81 E3          N/A
CALLAWAY         N/A     25  21  84 S9          N/A  WCI  16
$$

...NORTH PLATTE AREA...

CITY           SKY/WX    TMP DP  RH WIND       PRES   REMARKS
AIRPORT        MOCLDY    21  17  84 E5        30.34F WCI  15
DOWNTOWN         N/A     26  21  80 CALM        N/A
$$

...SOME WEATHER OBSERVATIONS FROM AROUND THE REGION...

CITY           SKY/WX    TMP DP  RH WIND       PRES   REMARKS
DENVER         CLOUDY    31  23  72 SW6       30.20S WCI  25
LARAMIE        MOCLDY    26  22  84 SW3       30.20S
CHEYENNE       CLOUDY    30  23  75 W7        30.18F WCI  23
SCOTTSBLUFF    MOCLDY    27  23  85 CALM      30.22F
RAPID CITY     MOCLDY    20  15  81 CALM      30.17F
PIERRE         CLEAR     21  18  88 SE10      30.26F WCI  10
WINNER         FAIR      26  20  77 SE8       30.29F WCI  18
SIOUX FALLS    MOCLDY    20  16  84 S8        30.46S WCI  10
OMAHA          PTCLDY    18  14  84 SE6       30.54R WCI  10
GRAND ISLAND   FAIR      21  19  92 S9        30.47S WCI  11
KANSAS CITY    PTCLDY    22  19  89 NE5       30.53S WCI  16
WICHITA        CLOUDY    25  20  81 CALM      30.54R
HAYS           CLOUDY    19  10  68 SW3       30.46S
LIBERAL        CLOUDY    36  25  64 S8        30.45F WCI  29
GOODLAND       CLOUDY    31  23  72 S16       30.31F WCI  20
$$



USA.gov is the U.S. government's official web portal to all federal, state and local government web resources and services.